• In Austria
  • List of Countries
  • For 7 days
  • Water Temperature
  • Satellite Maps
  • Weather Map
  • News
  • Weather Widgets
  • user-avatar
    Login

    Hourly Weather Kazaniv

    Today, 14 November, Wednesday

    Time Temperature Precipitation Wind Pressure Humidity
    00:00 +1°C° 0 mm 3 mps 737 mmHg 100%
    01:00 +1°C° 0 mm 3 mps 737 mmHg 100%
    02:00 +3°C° 0 mm 1 mps 737 mmHg 100%
    03:00 +3°C° 0 mm 0 mps 737 mmHg 99%
    04:00 +3°C° 1.5 mm 2 mps 736 mmHg 100%
    05:00 +4°C° 1.8 mm 1 mps 737 mmHg 100%
    06:00 +4°C° 0.8 mm 2 mps 737 mmHg 100%
    07:00 +4°C° 0.6 mm 3 mps 737 mmHg 100%
    08:00 +7°C° 0.2 mm 3 mps 738 mmHg 100%
    09:00 +7°C° 0 mm 4 mps 738 mmHg 100%
    10:00 +7°C° 0 mm 4 mps 738 mmHg 99%
    11:00 +8°C° 0 mm 5 mps 738 mmHg 97%
    12:00 +8°C° 0 mm 5 mps 738 mmHg 98%
    13:00 +6°C° 0 mm 7 mps 738 mmHg 98%
    14:00 +7°C° 0 mm 6 mps 738 mmHg 97%
    15:00 +6°C° 0 mm 5 mps 738 mmHg 96%
    16:00 +6°C° 0 mm 4 mps 738 mmHg 97%
    17:00 +6°C° 0 mm 4 mps 738 mmHg 97%
    18:00 +6°C° 0 mm 4 mps 738 mmHg 97%
    19:00 +5°C° 0 mm 5 mps 738 mmHg 97%
    20:00 +5°C° 0 mm 5 mps 738 mmHg 99%
    21:00 +5°C° 0 mm 5 mps 738 mmHg 100%
    22:00 +5°C° 0 mm 5 mps 738 mmHg 100%
    23:00 +5°C° 0.9 mm 4 mps 738 mmHg 100%

    Tomorrow, 15 November, Thursday

    Time Temperature Precipitation Wind Pressure Humidity
    00:00 +3°C° 1.1 mm 5 mps 738 mmHg 100%
    01:00 +3°C° 0.4 mm 5 mps 738 mmHg 100%
    02:00 +3°C° 0 mm 6 mps 738 mmHg 100%
    03:00 +3°C° 0 mm 5 mps 738 mmHg 100%
    04:00 +3°C° 0 mm 5 mps 738 mmHg 100%
    05:00 +3°C° 0.2 mm 5 mps 738 mmHg 100%
    06:00 +3°C° 0.1 mm 5 mps 738 mmHg 100%
    07:00 +3°C° 0.3 mm 5 mps 739 mmHg 100%
    08:00 +3°C° 0 mm 5 mps 739 mmHg 100%
    09:00 +3°C° 0.1 mm 5 mps 739 mmHg 100%
    10:00 +3°C° 0.4 mm 5 mps 739 mmHg 100%
    11:00 +3°C° 0.9 mm 5 mps 739 mmHg 100%
    12:00 +3°C° 1 mm 5 mps 739 mmHg 100%
    13:00 +3°C° 0.9 mm 5 mps 739 mmHg 100%
    14:00 +4°C° 0.2 mm 4 mps 739 mmHg 98%
    15:00 +3°C° 0.2 mm 4 mps 740 mmHg 99%
    16:00 +3°C° 0.3 mm 3 mps 740 mmHg 99%
    17:00 +3°C° 0.2 mm 3 mps 740 mmHg 99%
    18:00 +2°C° 0 mm 3 mps 741 mmHg 100%
    19:00 +3°C° 0 mm 2 mps 741 mmHg 100%
    20:00 +4°C° 0 mm 1 mps 741 mmHg 100%
    21:00 +4°C° 0.2 mm 1 mps 742 mmHg 100%
    22:00 +3°C° 0.3 mm 2 mps 742 mmHg 100%
    23:00 +3°C° 0.1 mm 2 mps 743 mmHg 100%

    Day after tomorrow, 16 November, Friday

    Time Temperature Precipitation Wind Pressure Humidity
    00:00 +3°C° 0 mm 2 mps 743 mmHg 100%
    01:00 +3°C° 0.4 mm 2 mps 743 mmHg 100%
    02:00 +3°C° 0.5 mm 2 mps 743 mmHg 100%
    03:00 +3°C° 0.1 mm 2 mps 744 mmHg 100%
    04:00 +3°C° 0.1 mm 2 mps 744 mmHg 100%
    05:00 +1°C° 0 mm 3 mps 744 mmHg 100%
    06:00 +2°C° 0.1 mm 2 mps 744 mmHg 100%
    07:00 +2°C° 0.1 mm 2 mps 745 mmHg 100%
    08:00 +2°C° 0 mm 2 mps 745 mmHg 100%
    09:00 +1°C° 0.2 mm 2 mps 745 mmHg 100%
    10:00 +2°C° 0.1 mm 2 mps 745 mmHg 99%
    11:00 +2°C° 0 mm 2 mps 746 mmHg 96%
    12:00 +3°C° 0 mm 2 mps 746 mmHg 96%
    13:00 +3°C° 0 mm 2 mps 745 mmHg 97%
    14:00 +3°C° 0 mm 2 mps 746 mmHg 92%
    15:00 +3°C° 0 mm 2 mps 746 mmHg 92%
    16:00 +2°C° 0 mm 2 mps 746 mmHg 95%
    17:00 +2°C° 0 mm 2 mps 746 mmHg 98%
    18:00 +1°C° 0 mm 2 mps 746 mmHg 98%
    19:00 +1°C° 0 mm 2 mps 746 mmHg 99%
    20:00 +1°C° 0 mm 1 mps 746 mmHg 100%
    21:00 -1°C° 0 mm 2 mps 746 mmHg 100%
    22:00 +1°C° 0 mm 1 mps 746 mmHg 100%
    23:00 0°C° 0 mm 1 mps 746 mmHg 100%

    17 November, Saturday

    Time Temperature Precipitation Wind Pressure Humidity
    00:00 0°C° 0 mm 1 mps 746 mmHg 100%
    01:00 -1°C° 0 mm 1 mps 746 mmHg 100%
    02:00 -1°C° 0 mm 1 mps 746 mmHg 100%
    03:00 -1°C° 0 mm 1 mps 746 mmHg 100%
    04:00 -2°C° 0 mm 1 mps 746 mmHg 100%
    05:00 -4°C° 0 mm 2 mps 746 mmHg 100%
    06:00 -4°C° 0 mm 2 mps 746 mmHg 100%
    07:00 -4°C° 0 mm 2 mps 746 mmHg 100%
    08:00 -4°C° 0 mm 2 mps 746 mmHg 100%
    09:00 -5°C° 0 mm 3 mps 746 mmHg 100%
    10:00 -5°C° 0 mm 3 mps 746 mmHg 100%
    11:00 -4°C° 0 mm 3 mps 746 mmHg 99%
    12:00 -3°C° 0 mm 2 mps 746 mmHg 99%
    13:00 -2°C° 0 mm 2 mps 746 mmHg 98%
    14:00 -2°C° 0 mm 2 mps 746 mmHg 97%

    18 November, Sunday

    Time Temperature Precipitation Wind Pressure Humidity

    19 November, Monday

    Time Temperature Precipitation Wind Pressure Humidity
    Show more